,,Stat6,,Stat2,,Stat8,,Stat9,,Stat10,,Wind1,,Wind1,
time,status,PA1M_AVG,status,PR1M_SUM,status,RH1M_AVG,status,SR1M_AVG,status,TA1M_AVG,status,W1dAve1m,status,W1sAve1m,
2004-08-02, 00:00:00,VALID,918.555,VALID,0,VALID,100,VALID,-0.0849042,VALID,18.1989,VALID,331,VALID,0.539426,
2004-08-02, 00:01:00,VALID,918.569,VALID,0,VALID,100,VALID,-0.118866,VALID,18.1922,VALID,350,VALID,0.624479,
2004-08-02, 00:02:00,VALID,918.58,VALID,0,VALID,100,VALID,-0.101885,VALID,18.186,VALID,11,VALID,0.691778,
2004-08-02, 00:03:00,VALID,918.597,VALID,0.2,VALID,100,VALID,-0.101885,VALID,18.1853,VALID,19,VALID,0.918501,
2004-08-02, 00:04:00,VALID,918.599,VALID,0,VALID,100,VALID,-0.101885,VALID,18.1922,VALID,18,VALID,0.946584,
2004-08-02, 00:05:00,VALID,918.6,VALID,0,VALID,100,VALID,-0.0849042,VALID,18.2019,VALID,16,VALID,0.98952,
2004-08-02, 00:06:00,VALID,918.611,VALID,0,VALID,100,VALID,-0.101885,VALID,18.1924,VALID,13,VALID,0.797247,
2004-08-02, 00:07:00,VALID,918.634,VALID,0,VALID,100,VALID,-0.101885,VALID,18.1659,VALID,9,VALID,0.580078,
2004-08-02, 00:08:00,VALID,918.638,VALID,0,VALID,100,VALID,-0.0339617,VALID,18.1818,VALID,7,VALID,0.234375,
2004-08-02, 00:09:00,VALID,918.663,VALID,0,VALID,100,VALID,0,VALID,18.1715,VALID,7,VALID,0.0445884,
2004-08-02, 00:10:00,VALID,918.693,VALID,0,VALID,100,VALID,0,VALID,18.168,VALID,7,VALID,0.199041,
2004-08-02, 00:11:00,VALID,918.712,VALID,0,VALID,100,VALID,0,VALID,18.168,VALID,7,VALID,0.182594,
2004-08-02, 00:12:00,VALID,918.73,VALID,0,VALID,100,VALID,0,VALID,18.1618,VALID,7,VALID,0,
2004-08-02, 00:13:00,VALID,918.752,VALID,0,VALID,100,VALID,0,VALID,18.1583,VALID,7,VALID,0.0610119,
2004-08-02, 00:14:00,VALID,918.781,VALID,0,VALID,100,VALID,-0.0169808,VALID,18.1747,VALID,7,VALID,0.178961,
2004-08-02, 00:15:00,VALID,918.805,VALID,0,VALID,100,VALID,0,VALID,18.2038,VALID,7,VALID,0.00495427,
2004-08-02, 00:16:00,VALID,918.819,VALID,0,VALID,100,VALID,-0.0169808,VALID,18.2001,VALID,7,VALID,0.0357143,
2004-08-02, 00:17:00,VALID,918.852,VALID,0,VALID,100,VALID,0,VALID,18.2102,VALID,7,VALID,0.321403,
2004-08-02, 00:18:00,VALID,918.863,VALID,0,VALID,100,VALID,0,VALID,18.2072,VALID,7,VALID,0.396234,
2004-08-02, 00:19:00,VALID,918.872,VALID,0,VALID,100,VALID,0,VALID,18.1941,VALID,7,VALID,0.638263,
2004-08-02, 00:20:00,VALID,918.882,VALID,0,VALID,100,VALID,0,VALID,18.1768,VALID,7,VALID,0.553597,
2004-08-02, 00:21:00,VALID,918.877,VALID,0,VALID,100,VALID,0,VALID,18.1772,VALID,14,VALID,0.718085,
2004-08-02, 00:22:00,VALID,918.88,VALID,0,VALID,100,VALID,-0.0169808,VALID,18.1747,VALID,22,VALID,0.681996,
2004-08-02, 00:23:00,VALID,918.882,VALID,0,VALID,100,VALID,0,VALID,18.1678,VALID,22,VALID,0.543064,
2004-08-02, 00:24:00,VALID,918.883,VALID,0,VALID,100,VALID,-0.0169808,VALID,18.1325,VALID,18,VALID,0.824405,
2004-08-02, 00:25:00,VALID,918.868,VALID,0,VALID,100,VALID,-0.0169808,VALID,18.1164,VALID,13,VALID,0.988948,
2004-08-02, 00:26:00,VALID,918.872,VALID,0,VALID,100,VALID,0,VALID,18.133,VALID,21,VALID,1.13951,
2004-08-02, 00:27:00,VALID,918.878,VALID,0,VALID,100,VALID,0,VALID,18.1355,VALID,21,VALID,1.01246,
2004-08-02, 00:28:00,VALID,918.89,VALID,0,VALID,100,VALID,0,VALID,18.1422,VALID,18,VALID,1.07552,
2004-08-02, 00:29:00,VALID,918.897,VALID,0,VALID,100,VALID,0,VALID,18.1456,VALID,21,VALID,0.868253,
2004-08-02, 00:30:00,VALID,918.892,VALID,0,VALID,100,VALID,0,VALID,18.1261,VALID,28,VALID,0.764353,
2004-08-02, 00:31:00,VALID,918.899,VALID,0,VALID,100,VALID,-0.0169808,VALID,18.1263,VALID,23,VALID,0.942522,
2004-08-02, 00:32:00,VALID,918.902,VALID,0,VALID,100,VALID,0,VALID,18.1201,VALID,20,VALID,1.11168,
2004-08-02, 00:33:00,VALID,918.902,VALID,0,VALID,100,VALID,0,VALID,18.1099,VALID,25,VALID,1.04896,
2004-08-02, 00:34:00,VALID,918.919,VALID,0,VALID,100,VALID,0,VALID,18.1166,VALID,22,VALID,0.994851,
2004-08-02, 00:35:00,VALID,918.913,VALID,0,VALID,100,VALID,0,VALID,18.1196,VALID,18,VALID,0.773624,
2004-08-02, 00:36:00,VALID,918.929,VALID,0,VALID,100,VALID,-0.0169808,VALID,18.1295,VALID,19,VALID,0.508492,
2004-08-02, 00:37:00,VALID,918.913,VALID,0,VALID,100,VALID,0.0169808,VALID,18.1228,VALID,19,VALID,0.249273,
2004-08-02, 00:38:00,VALID,918.903,VALID,0,VALID,100,VALID,-0.0679233,VALID,18.127,VALID,19,VALID,0.288281,
2004-08-02, 00:39:00,VALID,918.903,VALID,0,VALID,100,VALID,-0.101885,VALID,18.1406,VALID,19,VALID,0.17016,
2004-08-02, 00:40:00,VALID,918.892,VALID,0,VALID,100,VALID,-0.135847,VALID,18.1201,VALID,19,VALID,0.327195,
2004-08-02, 00:41:00,VALID,918.879,VALID,0,VALID,100,VALID,-0.101885,VALID,18.1205,VALID,19,VALID,0.379542,
2004-08-02, 00:42:00,VALID,918.857,VALID,0,VALID,100,VALID,-0.118866,VALID,18.1309,VALID,15,VALID,0.422476,
2004-08-02, 00:43:00,VALID,918.855,VALID,0,VALID,100,VALID,-0.118866,VALID,18.1311,VALID,15,VALID,0.397529,
2004-08-02, 00:44:00,VALID,918.845,VALID,0,VALID,100,VALID,-0.101885,VALID,18.118,VALID,15,VALID,0.0259146,
2004-08-02, 00:45:00,VALID,918.842,VALID,0,VALID,100,VALID,-0.101885,VALID,18.1207,VALID,15,VALID,0.352865,
2004-08-02, 00:46:00,VALID,918.833,VALID,0,VALID,100,VALID,-0.101885,VALID,18.1341,VALID,14,VALID,0.597747,
2004-08-02, 00:47:00,VALID,918.812,VALID,0,VALID,100,VALID,-0.101885,VALID,18.1018,VALID,4,VALID,0.762277,
2004-08-02, 00:48:00,VALID,918.801,VALID,0,VALID,100,VALID,-0.101885,VALID,18.0852,VALID,6,VALID,0.698219,
2004-08-02, 00:49:00,VALID,918.798,VALID,0,VALID,100,VALID,-0.101885,VALID,18.0855,VALID,1,VALID,0.569097,
2004-08-02, 00:50:00,VALID,918.774,VALID,0,VALID,100,VALID,-0.101885,VALID,18.0723,VALID,346,VALID,0.653343,
2004-08-02, 00:51:00,VALID,918.744,VALID,0,VALID,100,VALID,-0.101885,VALID,18.0656,VALID,11,VALID,0.817361,
2004-08-02, 00:52:00,VALID,918.706,VALID,0,VALID,100,VALID,-0.118866,VALID,18.0725,VALID,354,VALID,0.674538,
2004-08-02, 00:53:00,VALID,918.682,VALID,0,VALID,100,VALID,-0.0339617,VALID,18.0684,VALID,7,VALID,0.664993,
2004-08-02, 00:54:00,VALID,918.674,VALID,0,VALID,100,VALID,0,VALID,18.0779,VALID,11,VALID,0.809593,
2004-08-02, 00:55:00,VALID,918.657,VALID,0.2,VALID,100,VALID,0.0169808,VALID,18.0645,VALID,6,VALID,0.441778,
2004-08-02, 00:56:00,VALID,918.631,VALID,0,VALID,100,VALID,0,VALID,18.0553,VALID,6,VALID,0.0154433,
2004-08-02, 00:57:00,VALID,918.606,VALID,0,VALID,100,VALID,0,VALID,18.0585,VALID,6,VALID,0.477134,
2004-08-02, 00:58:00,VALID,918.583,VALID,0,VALID,100,VALID,0,VALID,18.055,VALID,3,VALID,0.309451,
2004-08-02, 00:59:00,VALID,918.57,VALID,0,VALID,100,VALID,0,VALID,18.0714,VALID,3,VALID,0.0514824,
2004-08-02, 01:00:00,VALID,918.543,VALID,0,VALID,100,VALID,0.0169808,VALID,18.0643,VALID,3,VALID,0,
2004-08-02, 01:01:00,VALID,918.516,VALID,0,VALID,100,VALID,0.0339617,VALID,18.0675,VALID,3,VALID,0,
2004-08-02, 01:02:00,VALID,918.479,VALID,0,VALID,100,VALID,0.0169808,VALID,18.0779,VALID,3,VALID,0,
2004-08-02, 01:03:00,VALID,918.458,VALID,0,VALID,100,VALID,0,VALID,18.0806,VALID,3,VALID,0,
2004-08-02, 01:04:00,VALID,918.432,VALID,0,VALID,100,VALID,0,VALID,18.0739,VALID,3,VALID,0,
2004-08-02, 01:05:00,VALID,918.409,VALID,0,VALID,100,VALID,0,VALID,18.0707,VALID,3,VALID,0.0202753,
2004-08-02, 01:06:00,VALID,918.418,VALID,0,VALID,100,VALID,0.0169808,VALID,18.0608,VALID,3,VALID,0,
2004-08-02, 01:07:00,VALID,918.408,VALID,0,VALID,100,VALID,0,VALID,18.0484,VALID,3,VALID,0.0829814,
2004-08-02, 01:08:00,VALID,918.394,VALID,0,VALID,100,VALID,0.0169808,VALID,18.0484,VALID,35,VALID,0.288383,
2004-08-02, 01:09:00,VALID,918.383,VALID,0,VALID,100,VALID,0.0169808,VALID,18.0619,VALID,139,VALID,0.448103,
2004-08-02, 01:10:00,VALID,918.368,VALID,0,VALID,100,VALID,0.0169808,VALID,18.0447,VALID,143,VALID,0.390625,
2004-08-02, 01:11:00,VALID,918.343,VALID,0,VALID,100,VALID,0.0169808,VALID,18.0419,VALID,143,VALID,0.297965,
2004-08-02, 01:12:00,VALID,918.322,VALID,0,VALID,100,VALID,0.0169808,VALID,18.055,VALID,143,VALID,0.0199033,
2004-08-02, 01:13:00,VALID,918.292,VALID,0,VALID,100,VALID,0.0339617,VALID,18.0518,VALID,143,VALID,0.00852273,
2004-08-02, 01:14:00,VALID,918.272,VALID,0,VALID,100,VALID,0.0339617,VALID,18.0649,VALID,138,VALID,0.344866,
2004-08-02, 01:15:00,VALID,918.232,VALID,0,VALID,100,VALID,0,VALID,18.0649,VALID,113,VALID,0.471168,
2004-08-02, 01:16:00,VALID,918.196,VALID,0,VALID,100,VALID,0,VALID,18.058,VALID,111,VALID,0.426417,
2004-08-02, 01:17:00,VALID,918.18,VALID,0,VALID,100,VALID,0.0339617,VALID,18.055,VALID,111,VALID,0.431504,
2004-08-02, 01:18:00,VALID,918.156,VALID,0,VALID,100,VALID,0,VALID,18.0553,VALID,111,VALID,0.415451,
2004-08-02, 01:19:00,VALID,918.148,VALID,0,VALID,100,VALID,0,VALID,18.0387,VALID,111,VALID,0.170387,
2004-08-02, 01:20:00,VALID,918.125,VALID,0,VALID,100,VALID,0,VALID,18.0357,VALID,111,VALID,0.202237,
2004-08-02, 01:21:00,VALID,918.111,VALID,0,VALID,100,VALID,0,VALID,18.0516,VALID,75,VALID,0.424851,
2004-08-02, 01:22:00,VALID,918.075,VALID,0,VALID,100,VALID,0,VALID,18.058,VALID,37,VALID,0.583629,
2004-08-02, 01:23:00,VALID,918.047,VALID,0,VALID,100,VALID,-0.0679233,VALID,18.0465,VALID,33,VALID,0.792188,
2004-08-02, 01:24:00,VALID,918.024,VALID,0,VALID,100,VALID,-0.0849042,VALID,18.0469,VALID,34,VALID,0.678544,
2004-08-02, 01:25:00,VALID,917.985,VALID,0,VALID,100,VALID,-0.0849042,VALID,18.0209,VALID,28,VALID,0.675959,
2004-08-02, 01:26:00,VALID,917.948,VALID,0,VALID,100,VALID,-0.101885,VALID,18.002,VALID,10,VALID,0.968928,
2004-08-02, 01:27:00,VALID,917.917,VALID,0,VALID,100,VALID,-0.101885,VALID,17.9791,VALID,8,VALID,0.793255,
2004-08-02, 01:28:00,VALID,917.88,VALID,0,VALID,100,VALID,-0.0849042,VALID,17.9695,VALID,9,VALID,0.731585,
2004-08-02, 01:29:00,VALID,917.845,VALID,0,VALID,100,VALID,-0.101885,VALID,17.9462,VALID,9,VALID,0.447088,
2004-08-02, 01:30:00,VALID,917.819,VALID,0,VALID,100,VALID,-0.101885,VALID,17.9305,VALID,9,VALID,0.342035,
2004-08-02, 01:31:00,VALID,917.779,VALID,0,VALID,100,VALID,-0.0849042,VALID,17.9372,VALID,11,VALID,0.528232,
2004-08-02, 01:32:00,VALID,917.724,VALID,0,VALID,100,VALID,-0.101885,VALID,17.9176,VALID,32,VALID,0.753997,
2004-08-02, 01:33:00,VALID,917.699,VALID,0,VALID,100,VALID,-0.0849042,VALID,17.9245,VALID,33,VALID,0.615552,
2004-08-02, 01:34:00,VALID,917.67,VALID,0,VALID,100,VALID,0,VALID,17.9003,VALID,52,VALID,0.432958,
2004-08-02, 01:35:00,VALID,917.634,VALID,0,VALID,100,VALID,0,VALID,17.8973,VALID,63,VALID,0.329078,
2004-08-02, 01:36:00,VALID,917.599,VALID,0,VALID,100,VALID,0,VALID,17.8909,VALID,113,VALID,0.511161,
2004-08-02, 01:37:00,VALID,917.588,VALID,0,VALID,100,VALID,0,VALID,17.884,VALID,133,VALID,0.258185,
2004-08-02, 01:38:00,VALID,917.577,VALID,0,VALID,100,VALID,0,VALID,17.8941,VALID,133,VALID,0.0550426,
2004-08-02, 01:39:00,VALID,917.573,VALID,0,VALID,100,VALID,0.0169808,VALID,17.9135,VALID,133,VALID,0.00213068,
2004-08-02, 01:40:00,VALID,917.563,VALID,0,VALID,100,VALID,0,VALID,17.93,VALID,121,VALID,0.161156,
2004-08-02, 01:41:00,VALID,917.544,VALID,0,VALID,100,VALID,0,VALID,17.9294,VALID,104,VALID,0.240371,
2004-08-02, 01:42:00,VALID,917.529,VALID,0,VALID,100,VALID,0,VALID,17.9298,VALID,95,VALID,0.197088,
2004-08-02, 01:43:00,VALID,917.516,VALID,0,VALID,100,VALID,0.0339617,VALID,17.9192,VALID,90,VALID,0.0408794,
2004-08-02, 01:44:00,VALID,917.5,VALID,0,VALID,100,VALID,0,VALID,17.9132,VALID,90,VALID,0,
2004-08-02, 01:45:00,VALID,917.506,VALID,0,VALID,100,VALID,0.0339617,VALID,17.9065,VALID,19,VALID,0.240625,
2004-08-02, 01:46:00,VALID,917.495,VALID,0,VALID,100,VALID,0.0509425,VALID,17.9035,VALID,342,VALID,0.611192,
2004-08-02, 01:47:00,VALID,917.48,VALID,0,VALID,100,VALID,0.0679233,VALID,17.9001,VALID,8,VALID,1.11392,
2004-08-02, 01:48:00,VALID,917.476,VALID,0,VALID,100,VALID,0.0169808,VALID,17.8969,VALID,8,VALID,0.706055,
2004-08-02, 01:49:00,VALID,917.464,VALID,0,VALID,100,VALID,0.0169808,VALID,17.8906,VALID,351,VALID,0.556974,
2004-08-02, 01:50:00,VALID,917.462,VALID,0,VALID,100,VALID,0.0169808,VALID,17.8904,VALID,275,VALID,0.590216,
2004-08-02, 01:51:00,VALID,917.433,VALID,0,VALID,100,VALID,0.0339617,VALID,17.8971,VALID,323,VALID,0.508929,
2004-08-02, 01:52:00,VALID,917.406,VALID,0,VALID,100,VALID,0.0169808,VALID,17.8936,VALID,5,VALID,0.406436,
2004-08-02, 01:53:00,VALID,917.393,VALID,0,VALID,100,VALID,0.0169808,VALID,17.8906,VALID,24,VALID,0.864347,
2004-08-02, 01:54:00,VALID,917.368,VALID,0,VALID,100,VALID,0,VALID,17.9072,VALID,26,VALID,0.694586,
2004-08-02, 01:55:00,VALID,917.35,VALID,0,VALID,100,VALID,0,VALID,17.8971,VALID,38,VALID,0.65843,
2004-08-02, 01:56:00,VALID,917.325,VALID,0,VALID,100,VALID,0.0339617,VALID,17.8876,VALID,72,VALID,0.75093,
2004-08-02, 01:57:00,VALID,917.308,VALID,0,VALID,100,VALID,0,VALID,17.862,VALID,95,VALID,0.87571,
2004-08-02, 01:58:00,VALID,917.271,VALID,0,VALID,100,VALID,0.0169808,VALID,17.8422,VALID,104,VALID,0.865282,
2004-08-02, 01:59:00,VALID,917.241,VALID,0,VALID,100,VALID,0,VALID,17.8429,VALID,120,VALID,1.01097,
2004-08-02, 02:00:00,VALID,917.215,VALID,0,VALID,100,VALID,0,VALID,17.845,VALID,83,VALID,0.876953,
2004-08-02, 02:01:00,VALID,917.2,VALID,0,VALID,100,VALID,0.0509425,VALID,17.8392,VALID,68,VALID,0.613839,
2004-08-02, 02:02:00,VALID,917.182,VALID,0,VALID,100,VALID,0.0339617,VALID,17.8392,VALID,98,VALID,0.75279,
2004-08-02, 02:03:00,VALID,917.151,VALID,0,VALID,100,VALID,0,VALID,17.8422,VALID,103,VALID,1.03658,
2004-08-02, 02:04:00,VALID,917.123,VALID,0,VALID,100,VALID,0,VALID,17.8487,VALID,100,VALID,1.14103,
2004-08-02, 02:05:00,VALID,917.114,VALID,0,VALID,100,VALID,0.0169808,VALID,17.881,VALID,111,VALID,1.11793,
2004-08-02, 02:06:00,VALID,917.093,VALID,0,VALID,100,VALID,0.0169808,VALID,17.8973,VALID,114,VALID,1.07522,
2004-08-02, 02:07:00,VALID,917.098,VALID,0,VALID,100,VALID,0,VALID,17.8969,VALID,124,VALID,1.13709,
2004-08-02, 02:08:00,VALID,917.086,VALID,0,VALID,100,VALID,-0.0509425,VALID,17.8911,VALID,125,VALID,1.23147,
2004-08-02, 02:09:00,VALID,917.075,VALID,0,VALID,100,VALID,-0.0849042,VALID,17.8892,VALID,134,VALID,1.35747,
2004-08-02, 02:10:00,VALID,917.053,VALID,0,VALID,100,VALID,-0.101885,VALID,17.8825,VALID,131,VALID,1.32143,
2004-08-02, 02:11:00,VALID,917.03,VALID,0,VALID,100,VALID,-0.0679233,VALID,17.8657,VALID,111,VALID,1.26829,
2004-08-02, 02:12:00,VALID,916.985,VALID,0,VALID,100,VALID,-0.0679233,VALID,17.8627,VALID,114,VALID,1.38746,
2004-08-02, 02:13:00,VALID,916.977,VALID,0,VALID,100,VALID,-0.0849042,VALID,17.8565,VALID,119,VALID,1.20064,
2004-08-02, 02:14:00,VALID,916.963,VALID,0,VALID,100,VALID,-0.0679233,VALID,17.8563,VALID,122,VALID,1.32317,
2004-08-02, 02:15:00,VALID,916.986,VALID,0,VALID,100,VALID,-0.0169808,VALID,17.8597,VALID,118,VALID,1.0831,
2004-08-02, 02:16:00,VALID,916.989,VALID,0,VALID,100,VALID,-0.101885,VALID,17.8659,VALID,108,VALID,1.10174,
2004-08-02, 02:17:00,VALID,916.999,VALID,0,VALID,100,VALID,-0.0849042,VALID,17.8563,VALID,104,VALID,0.917225,
2004-08-02, 02:18:00,VALID,917.016,VALID,0,VALID,100,VALID,-0.101885,VALID,17.8666,VALID,96,VALID,0.845238,
2004-08-02, 02:19:00,VALID,917.007,VALID,0,VALID,100,VALID,-0.0849042,VALID,17.8599,VALID,115,VALID,0.655506,
2004-08-02, 02:20:00,VALID,917.009,VALID,0,VALID,100,VALID,-0.0679233,VALID,17.8563,VALID,106,VALID,0.799306,
2004-08-02, 02:21:00,VALID,917.003,VALID,0,VALID,100,VALID,-0.101885,VALID,17.8632,VALID,82,VALID,0.686285,
2004-08-02, 02:22:00,VALID,916.97,VALID,0,VALID,100,VALID,-0.101885,VALID,17.8532,VALID,62,VALID,1.06305,
2004-08-02, 02:23:00,VALID,916.945,VALID,0,VALID,100,VALID,-0.0339617,VALID,17.833,VALID,66,VALID,1.04554,
2004-08-02, 02:24:00,VALID,916.904,VALID,0,VALID,100,VALID,0,VALID,17.8196,VALID,77,VALID,1.18583,
2004-08-02, 02:25:00,VALID,916.864,VALID,0,VALID,100,VALID,0.0169808,VALID,17.8198,VALID,107,VALID,1.05048,
2004-08-02, 02:26:00,VALID,916.845,VALID,0,VALID,100,VALID,0,VALID,17.8134,VALID,124,VALID,0.849276,
2004-08-02, 02:27:00,VALID,916.851,VALID,0,VALID,100,VALID,0,VALID,17.8067,VALID,139,VALID,0.983333,
2004-08-02, 02:28:00,VALID,916.869,VALID,0,VALID,100,VALID,0.0509425,VALID,17.8229,VALID,143,VALID,1.32086,
2004-08-02, 02:29:00,VALID,916.899,VALID,0,VALID,100,VALID,0.0339617,VALID,17.8224,VALID,142,VALID,1.3432,
2004-08-02, 02:30:00,VALID,916.925,VALID,0,VALID,100,VALID,0.0339617,VALID,17.8362,VALID,152,VALID,0.936047,
2004-08-02, 02:31:00,VALID,916.944,VALID,0,VALID,100,VALID,0.0339617,VALID,17.859,VALID,139,VALID,1.05227,
2004-08-02, 02:32:00,VALID,916.967,VALID,0,VALID,100,VALID,0.0339617,VALID,17.8519,VALID,146,VALID,0.893483,
2004-08-02, 02:33:00,VALID,916.974,VALID,0,VALID,100,VALID,0.0169808,VALID,17.8586,VALID,147,VALID,1.03924,
2004-08-02, 02:34:00,VALID,916.994,VALID,0,VALID,100,VALID,0,VALID,17.8648,VALID,126,VALID,0.826367,
2004-08-02, 02:35:00,VALID,916.989,VALID,0,VALID,100,VALID,0,VALID,17.8784,VALID,118,VALID,0.741071,
2004-08-02, 02:36:00,VALID,916.994,VALID,0,VALID,100,VALID,0,VALID,17.8618,VALID,133,VALID,0.916016,
2004-08-02, 02:37:00,VALID,916.979,VALID,0,VALID,100,VALID,0,VALID,17.8554,VALID,125,VALID,0.890092,
2004-08-02, 02:38:00,VALID,916.973,VALID,0,VALID,100,VALID,0,VALID,17.8556,VALID,124,VALID,0.782522,
2004-08-02, 02:39:00,VALID,916.968,VALID,0,VALID,100,VALID,0,VALID,17.8364,VALID,104,VALID,0.707118,
2004-08-02, 02:40:00,VALID,916.973,VALID,0,VALID,100,VALID,0,VALID,17.8298,VALID,77,VALID,0.725142,
2004-08-02, 02:41:00,VALID,916.991,VALID,0,VALID,100,VALID,0,VALID,17.8263,VALID,73,VALID,0.603609,
2004-08-02, 02:42:00,VALID,916.986,VALID,0,VALID,100,VALID,-0.0169808,VALID,17.8069,VALID,72,VALID,0.573038,
2004-08-02, 02:43:00,VALID,916.993,VALID,0,VALID,100,VALID,0.0169808,VALID,17.7878,VALID,72,VALID,0.39755,
2004-08-02, 02:44:00,VALID,916.976,VALID,0,VALID,100,VALID,0,VALID,17.7652,VALID,72,VALID,0.357558,
2004-08-02, 02:45:00,VALID,916.97,VALID,0,VALID,100,VALID,0,VALID,17.7331,VALID,72,VALID,0.199929,
2004-08-02, 02:46:00,VALID,916.947,VALID,0,VALID,100,VALID,0.0169808,VALID,17.7232,VALID,72,VALID,0.125545,
2004-08-02, 02:47:00,VALID,916.939,VALID,0,VALID,100,VALID,0.0169808,VALID,17.7105,VALID,72,VALID,0.0658967,
2004-08-02, 02:48:00,VALID,916.927,VALID,0,VALID,100,VALID,0,VALID,17.691,VALID,71,VALID,0.288261,
2004-08-02, 02:49:00,VALID,916.904,VALID,0,VALID,100,VALID,0,VALID,17.6714,VALID,33,VALID,0.501302,
2004-08-02, 02:50:00,VALID,916.863,VALID,0,VALID,100,VALID,0,VALID,17.6686,VALID,348,VALID,0.636819,
2004-08-02, 02:51:00,VALID,916.858,VALID,0,VALID,100,VALID,0,VALID,17.6808,VALID,344,VALID,0.382813,
2004-08-02, 02:52:00,VALID,916.847,VALID,0,VALID,100,VALID,0,VALID,17.7101,VALID,344,VALID,0.284091,
2004-08-02, 02:53:00,VALID,916.833,VALID,0,VALID,100,VALID,0.0169808,VALID,17.691,VALID,348,VALID,0.375521,
2004-08-02, 02:54:00,VALID,916.83,VALID,0,VALID,100,VALID,0,VALID,17.6877,VALID,349,VALID,0.43471,
2004-08-02, 02:55:00,VALID,916.818,VALID,0,VALID,100,VALID,0,VALID,17.6877,VALID,349,VALID,0.373094,
2004-08-02, 02:56:00,VALID,916.841,VALID,0,VALID,100,VALID,-0.0169808,VALID,17.678,VALID,349,VALID,0.292783,
2004-08-02, 02:57:00,VALID,916.839,VALID,0,VALID,100,VALID,0,VALID,17.6621,VALID,349,VALID,0.281436,
2004-08-02, 02:58:00,VALID,916.835,VALID,0,VALID,100,VALID,0,VALID,17.6587,VALID,349,VALID,0.0285247,
2004-08-02, 02:59:00,VALID,916.821,VALID,0,VALID,100,VALID,0,VALID,17.6651,VALID,357,VALID,0.594295,
2004-08-02, 03:00:00,VALID,916.802,VALID,0,VALID,100,VALID,-0.0169808,VALID,17.6681,VALID,20,VALID,0.429878,
2004-08-02, 03:01:00,VALID,916.785,VALID,0,VALID,100,VALID,0,VALID,17.6651,VALID,20,VALID,0.258384,
2004-08-02, 03:02:00,VALID,916.75,VALID,0,VALID,100,VALID,-0.0169808,VALID,17.6522,VALID,20,VALID,0.25372,
2004-08-02, 03:03:00,VALID,916.719,VALID,0,VALID,100,VALID,-0.0169808,VALID,17.6393,VALID,33,VALID,0.505394,
2004-08-02, 03:04:00,VALID,916.691,VALID,0,VALID,100,VALID,-0.0169808,VALID,17.6271,VALID,67,VALID,0.60032,
2004-08-02, 03:05:00,VALID,916.668,VALID,0,VALID,100,VALID,0,VALID,17.6268,VALID,68,VALID,0.857329,
2004-08-02, 03:06:00,VALID,916.662,VALID,0,VALID,100,VALID,0.0169808,VALID,17.6555,VALID,55,VALID,0.925686,
2004-08-02, 03:07:00,VALID,916.656,VALID,0,VALID,100,VALID,0,VALID,17.652,VALID,46,VALID,0.851207,
2004-08-02, 03:08:00,VALID,916.626,VALID,0,VALID,100,VALID,-0.0679233,VALID,17.5946,VALID,43,VALID,0.881611,
2004-08-02, 03:09:00,VALID,916.609,VALID,0,VALID,100,VALID,-0.135847,VALID,17.5533,VALID,41,VALID,0.670015,
2004-08-02, 03:10:00,VALID,916.589,VALID,0,VALID,100,VALID,-0.101885,VALID,17.5279,VALID,40,VALID,0.658736,
2004-08-02, 03:11:00,VALID,916.587,VALID,0,VALID,100,VALID,-0.0679233,VALID,17.4887,VALID,34,VALID,0.694285,
2004-08-02, 03:12:00,VALID,916.564,VALID,0,VALID,100,VALID,-0.101885,VALID,17.4797,VALID,34,VALID,0.704985,
2004-08-02, 03:13:00,VALID,916.55,VALID,0,VALID,100,VALID,-0.118866,VALID,17.4855,VALID,34,VALID,0.842607,
2004-08-02, 03:14:00,VALID,916.529,VALID,0,VALID,100,VALID,-0.101885,VALID,17.5376,VALID,34,VALID,0.844122,
2004-08-02, 03:15:00,VALID,916.521,VALID,0,VALID,100,VALID,-0.0849042,VALID,17.5569,VALID,34,VALID,0.808854,
2004-08-02, 03:16:00,VALID,916.52,VALID,0,VALID,100,VALID,-0.101885,VALID,17.5503,VALID,27,VALID,0.712081,
2004-08-02, 03:17:00,VALID,916.519,VALID,0,VALID,100,VALID,-0.101885,VALID,17.5572,VALID,10,VALID,0.640988,
2004-08-02, 03:18:00,VALID,916.514,VALID,0,VALID,100,VALID,-0.118866,VALID,17.5892,VALID,24,VALID,0.651786,
2004-08-02, 03:19:00,VALID,916.502,VALID,0,VALID,100,VALID,-0.101885,VALID,17.6181,VALID,16,VALID,0.617759,
2004-08-02, 03:20:00,VALID,916.512,VALID,0,VALID,100,VALID,-0.101885,VALID,17.6376,VALID,16,VALID,0.420573,
2004-08-02, 03:21:00,VALID,916.519,VALID,0,VALID,100,VALID,-0.101885,VALID,17.6572,VALID,16,VALID,0.0219131,
2004-08-02, 03:22:00,VALID,916.508,VALID,0,VALID,100,VALID,-0.0849042,VALID,17.657,VALID,16,VALID,0,
2004-08-02, 03:23:00,VALID,916.502,VALID,0,VALID,100,VALID,-0.0339617,VALID,17.6815,VALID,332,VALID,0.247768,
2004-08-02, 03:24:00,VALID,916.473,VALID,0,VALID,100,VALID,0,VALID,17.6942,VALID,338,VALID,0.297602,
2004-08-02, 03:25:00,VALID,916.463,VALID,0,VALID,100,VALID,0.0169808,VALID,17.7207,VALID,346,VALID,0.491443,
2004-08-02, 03:26:00,VALID,916.448,VALID,0,VALID,100,VALID,-0.0169808,VALID,17.717,VALID,348,VALID,0.788368,
2004-08-02, 03:27:00,VALID,916.446,VALID,0,VALID,100,VALID,0.0169808,VALID,17.7101,VALID,2,VALID,0.556597,
2004-08-02, 03:28:00,VALID,916.44,VALID,0,VALID,100,VALID,0.0169808,VALID,17.7172,VALID,2,VALID,0.754836,
2004-08-02, 03:29:00,VALID,916.442,VALID,0,VALID,100,VALID,0,VALID,17.7039,VALID,6,VALID,0.515972,
2004-08-02, 03:30:00,VALID,916.457,VALID,0,VALID,100,VALID,0,VALID,17.7041,VALID,15,VALID,0.239769,
2004-08-02, 03:31:00,VALID,916.447,VALID,0,VALID,100,VALID,0,VALID,17.7006,VALID,298,VALID,0.281064,
2004-08-02, 03:32:00,VALID,916.454,VALID,0,VALID,100,VALID,0.0169808,VALID,17.6942,VALID,246,VALID,0.0239702,
2004-08-02, 03:33:00,VALID,916.458,VALID,0,VALID,100,VALID,0,VALID,17.6845,VALID,246,VALID,0.0174419,
2004-08-02, 03:34:00,VALID,916.458,VALID,0,VALID,100,VALID,0,VALID,17.6649,VALID,246,VALID,0.000177557,
2004-08-02, 03:35:00,VALID,916.458,VALID,0,VALID,100,VALID,0.0169808,VALID,17.6619,VALID,249,VALID,0.112393,
2004-08-02, 03:36:00,VALID,916.461,VALID,0,VALID,100,VALID,0,VALID,17.6555,VALID,281,VALID,0.25728,
2004-08-02, 03:37:00,VALID,916.471,VALID,0,VALID,100,VALID,-0.0169808,VALID,17.6497,VALID,338,VALID,0.10174,
2004-08-02, 03:38:00,VALID,916.478,VALID,0,VALID,100,VALID,0,VALID,17.6335,VALID,338,VALID,0.169643,
2004-08-02, 03:39:00,VALID,916.487,VALID,0,VALID,100,VALID,0.0169808,VALID,17.6167,VALID,338,VALID,0.0750363,
2004-08-02, 03:40:00,VALID,916.499,VALID,0,VALID,100,VALID,0.0169808,VALID,17.6165,VALID,338,VALID,0.32777,
2004-08-02, 03:41:00,VALID,916.487,VALID,0,VALID,100,VALID,0.0679233,VALID,17.646,VALID,264,VALID,0.513569,
2004-08-02, 03:42:00,VALID,916.492,VALID,0,VALID,100,VALID,0.0169808,VALID,17.6557,VALID,226,VALID,0.632622,
2004-08-02, 03:43:00,VALID,916.489,VALID,0,VALID,100,VALID,0,VALID,17.646,VALID,226,VALID,0.392624,
2004-08-02, 03:44:00,VALID,916.482,VALID,0,VALID,100,VALID,0,VALID,17.6264,VALID,226,VALID,0.288336,